Home   Weather   Naples   Past weeks
Flag for USA

Past Weather in Naples, Florida, USA — Yesterday and Last 2 Weeks

Now
75 °F

Clear.


Feels Like: 74 °F
Forecast: 89 / 77 °F
Wind: No wind

Location: Southwest Florida International Airport

Current Time: Jul 19, 2019 at 11:21:13 pm

Latest Report: Jul 19, 2019 at 9:53 pm


Visibility: 10 mi

Pressure: 30.07 "Hg

Humidity: 90%

Dew Point: 72 °F

Location of NaplesLocation

Past Weather in Naples — Graph

°F

Naples Temperature Yesterday

Maximum temperature yesterday: 89 °F (at 11:53 am)
Minimum temperature yesterday: 75 °F (at 1:53 am)
Average temperature yesterday: 81 °F

High & Low Weather Summary for the Past Weeks

 TemperatureHumidityPressure
High95 °F (Jul 14, 3:53 pm)97% (Jul 9, 2:53 am)30.13 "Hg (Jul 9, 2:53 am)
Low72 °F (Jul 19, 4:53 pm)43% (Jul 15, 5:53 pm)29.91 "Hg (Jul 8, 7:53 pm)
Average81 °F79%30.04 "Hg
* Reported Jul 4 9:53 pm — Jul 19 9:53 pm, Naples. Weather by CustomWeather, © 2019

Note: Actual official high and low records may vary slightly from our data, if they occured in-between our weather recording intervals... More about our weather records

Advertising

Naples Weather History for the Previous 24 Hours

Scroll right to see more
 ConditionsComfort  
Time TempWeatherWind HumidityBarometerVisibility
9:53 pm
Fri, Jul 19
75 °FClear.No wind90%30.07 "Hg10 mi
8:53 pm75 °FClear.7 mph90%30.05 "Hg10 mi
7:53 pm75 °FScattered clouds.3 mph94%30.04 "Hg10 mi
6:53 pm74 °FLight rain. Scattered clouds.5 mph94%30.04 "Hg9 mi
6:35 pm73 °FLight rain. Scattered clouds.8 mph94%30.06 "Hg10 mi
6:07 pm75 °FThunderstorms. Partly sunny.6 mph85%30.06 "Hg10 mi
5:53 pm75 °FThundershowers. Scattered clouds.No wind82%30.04 "Hg10 mi
5:15 pm72 °FThunderstorms. Cloudy.5 mph87%30.07 "Hg10 mi
4:53 pm72 °FStrong thunderstorms. Fog.6 mph87%30.08 "Hg1 mi
3:53 pm89 °FThunderstorms. Sunny.10 mph57%30.02 "Hg10 mi
3:32 pm89 °FThunderstorms. Passing clouds.12 mph65%30.05 "Hg10 mi
3:06 pm88 °FThundershowers. Partly sunny.14 mph63%30.06 "Hg10 mi
2:53 pm90 °FThunderstorms. Partly sunny.13 mph57%30.06 "Hg10 mi
1:53 pm92 °FPassing clouds.5 mph52%30.07 "Hg10 mi
12:53 pm90 °FPassing clouds.No wind52%30.09 "Hg10 mi
11:53 am88 °FScattered clouds.6 mph59%30.10 "Hg10 mi
10:53 am87 °FPassing clouds.8 mph61%30.09 "Hg10 mi
9:53 am85 °FSunny.9 mph72%30.09 "Hg10 mi
8:53 am82 °FSunny.7 mph79%30.08 "Hg10 mi
7:53 am78 °FSunny.6 mph90%30.06 "Hg10 mi
6:53 am76 °FSunny.5 mph94%30.05 "Hg10 mi
5:53 am76 °FClear.5 mph94%30.04 "Hg10 mi
4:53 am77 °FClear.5 mph90%30.04 "Hg10 mi
3:53 am78 °FClear.3 mph84%30.05 "Hg10 mi
2:53 am78 °FClear.5 mph84%30.06 "Hg10 mi
1:53 am79 °FPassing clouds.5 mph79%30.08 "Hg10 mi
12:53 am80 °FClear.No wind76%30.09 "Hg10 mi
11:53 pm
Thu, Jul 18
79 °FClear.5 mph82%30.09 "Hg10 mi
Weather by CustomWeather, © 2019

See weather overview